This is the latest recevied weather packets stored in our database for station/object YC0TBU-4. If no packets are shown the sender has not sent any weather packets the latest 10 day(s).
| Time | Temp. | Humidity | Pressure | Rain* | Wind** | Luminosity | Snow |
|---|---|---|---|---|---|---|---|
| 1787510674 | 27.22° C | 44% | 1014.7 hPa | - | - | - | - |
| 1787508876 | 27.22° C | 44% | 1015 hPa | - | - | - | - |
| 1787507074 | 27.78° C | 44% | 1015.2 hPa | - | - | - | - |
| 1787505274 | 27.22° C | 44% | 1015.5 hPa | - | - | - | - |
| 1787503474 | 27.78° C | 43% | 1015.8 hPa | - | - | - | - |
| 1787501674 | 27.78° C | 43% | 1015.9 hPa | - | - | - | - |
| 1787499874 | 27.78° C | 42% | 1016.1 hPa | - | - | - | - |
| 1787498074 | 27.78° C | 43% | 1016 hPa | - | - | - | - |
| 1787496274 | 28.33° C | 42% | 1016 hPa | - | - | - | - |
| 1787494474 | 28.33° C | 41% | 1016.1 hPa | - | - | - | - |
| 1787492675 | 28.33° C | 41% | 1015.8 hPa | - | - | - | - |
| 1787490874 | 28.33° C | 42% | 1015.5 hPa | - | - | - | - |
| 1787489074 | 28.33° C | 42% | 1015.1 hPa | - | - | - | - |
| 1787485458 | 28.89° C | 40% | 1014 hPa | - | - | - | - |
| 1787483658 | 29.44° C | 39% | 1013.5 hPa | - | - | - | - |
| 1787481857 | 29.44° C | 38% | 1013.2 hPa | - | - | - | - |
| 1787480057 | 29.44° C | 38% | 1012.9 hPa | - | - | - | - |
| 1787478257 | 30.56° C | 36% | 1012.6 hPa | - | - | - | - |
| 1787476457 | 30.56° C | 36% | 1012.5 hPa | - | - | - | - |
| 1787474657 | 31.11° C | 34% | 1012.3 hPa | - | - | - | - |
| 1787472857 | 31.11° C | 34% | 1012.3 hPa | - | - | - | - |
| 1787471057 | 31.11° C | 36% | 1012.6 hPa | - | - | - | - |
| 1787469257 | 31.11° C | 36% | 1012.9 hPa | - | - | - | - |
| 1787467457 | 30.56° C | 37% | 1013.3 hPa | - | - | - | - |
| 1787465657 | 30.56° C | 36% | 1013.8 hPa | - | - | - | - |
* Rain since midnight (hover to see other rain measurements)
** Current wind speed in m/s (hover to see current wind gust speed)